Weather History for Lanai City, HI

Change the Weather History Date:

Tuesday, April 22, 2014

  Actual Average Record
Temperature  
Mean Temperature 22 °C -  
Max Temperature 27 °C 25 °C 27 °C (1992)
Min Temperature 17 °C 16 °C 13 °C (1954)
Cooling Degree Days 7    
Growing Degree Days 22 (Base 50)    
Moisture  
Dew Point 18 °C    
Average Humidity 75    
Maximum Humidity 93    
Minimum Humidity 54    
Precipitation  
Precipitation 0.00 mm - - ()
Sea Level Pressure  
Sea Level Pressure 1018 hPa    
Wind  
Wind Speed 18 km/h (NE)    
Max Wind Speed 37 km/h    
Max Gust Speed 45 km/h    
Visibility 16 kilometers    
Events      
Averages and records for this station are not official NWS values.
T = Trace of Precipitation, MM = Missing Value Source: NWS Daily Summary

Daily Weather History Graph

Daily Weather History Graph

Search for Another Location

Airport:

Trip Planner

Search our weather history database for the weather conditions in past years. The results will help you decide how hot, cold, wet, or windy it might be!

Date:

Astronomy

Apr. 22, 2014 Rise Set
Actual Time 6:03 AM HST 6:49 PM HST
Civil Twilight 5:40 AM HST 7:12 PM HST
Nautical Twilight 5:13 AM HST 7:38 PM HST
Astronomical Twilight 4:46 AM HST 8:06 PM HST
Moon 1:08 AM HST 12:52 PM HST
Length of Visible Light 13h 31m
Length of Day
12h 45m
Last Quarter, 43% of the Moon is Illuminated
Apr 22
Last Quarter
Apr 28
New
May 6
First Quarter
May 14
Full
May 21
Last Quarter

Hourly Weather History & Observations

Time (HST) Temp. Heat Index Dew Point Humidity Pressure Visibility Wind Dir Wind Speed Gust Speed Precip Events Conditions
12:56 AM 19.4 °C - 17.2 °C 87% 1018.5 hPa 16.1 km NE 14.8 km/h / 4.1 m/s - N/A   Clear
1:56 AM 18.8 °C - 16.6 °C 87% 1018.5 hPa 16.1 km ENE 7.4 km/h / 2.1 m/s - N/A   Clear
2:56 AM 19.4 °C - 17.7 °C 90% 1017.7 hPa 16.1 km NNE 18.5 km/h / 5.1 m/s - N/A   Clear
3:56 AM 18.3 °C - 16.6 °C 90% 1017.7 hPa 16.1 km ENE 11.1 km/h / 3.1 m/s - N/A   Clear
4:56 AM 17.7 °C - 16.6 °C 93% 1017.8 hPa 16.1 km East 9.3 km/h / 2.6 m/s - N/A   Clear
5:56 AM 18.8 °C - 17.2 °C 90% 1017.8 hPa 16.1 km NNE 16.7 km/h / 4.6 m/s - N/A   Clear
6:56 AM 20.5 °C - 17.2 °C 81% 1018.5 hPa 16.1 km ENE 9.3 km/h / 2.6 m/s - N/A   Clear
7:56 AM 23.3 °C - 17.7 °C 71% 1018.7 hPa 16.1 km ESE 7.4 km/h / 2.1 m/s - N/A   Clear
8:56 AM 24.4 °C - 17.7 °C 66% 1019.0 hPa 16.1 km NNE 20.4 km/h / 5.7 m/s - N/A   Clear
9:56 AM 26.1 °C - 17.7 °C 60% 1018.6 hPa 16.1 km NNE 27.8 km/h / 7.7 m/s 35.2 km/h / 9.8 m/s N/A   Clear
10:56 AM 26.6 °C - 18.3 °C 60% 1018.4 hPa 16.1 km NNE 27.8 km/h / 7.7 m/s - N/A   Partly Cloudy
11:40 AM 26.0 °C - 18.0 °C 61% 1020.5 hPa 16.1 km NE 20.4 km/h / 5.7 m/s - N/A   Overcast
11:56 AM 25.5 °C - 17.7 °C 62% 1018.2 hPa 16.1 km NNE 29.6 km/h / 8.2 m/s - N/A   Overcast
12:56 PM 27.7 °C 28.6 °C 18.3 °C 56% 1017.1 hPa 16.1 km NNE 31.5 km/h / 8.7 m/s 40.7 km/h / 11.3 m/s N/A   Partly Cloudy
1:56 PM 27.0 °C 27.9 °C 18.0 °C 58% 1018.2 hPa 16.1 km NE 35.2 km/h / 9.8 m/s - N/A   Mostly Cloudy
2:56 PM 27.7 °C 28.5 °C 17.7 °C 54% 1015.3 hPa 16.1 km NNE 35.2 km/h / 9.8 m/s 44.4 km/h / 12.3 m/s N/A   Partly Cloudy
3:56 PM 26.1 °C - 17.7 °C 60% 1015.2 hPa 16.1 km NE 37.0 km/h / 10.3 m/s 42.6 km/h / 11.8 m/s N/A   Clear
4:56 PM 23.8 °C - 18.3 °C 71% 1015.5 hPa 16.1 km NE 29.6 km/h / 8.2 m/s 42.6 km/h / 11.8 m/s N/A   Clear
5:56 PM 22.2 °C - 17.7 °C 76% 1016.2 hPa 16.1 km NE 22.2 km/h / 6.2 m/s 38.9 km/h / 10.8 m/s N/A   Clear
6:56 PM 21.1 °C - 17.7 °C 81% 1016.9 hPa 16.1 km NE 27.8 km/h / 7.7 m/s - N/A   Clear
7:56 PM 21.1 °C - 17.7 °C 81% 1017.6 hPa 16.1 km NE 25.9 km/h / 7.2 m/s - N/A   Clear
8:56 PM 21.1 °C - 17.7 °C 81% 1018.2 hPa 16.1 km NNE 22.2 km/h / 6.2 m/s - N/A   Partly Cloudy
9:56 PM 20.5 °C - 17.2 °C 81% 1018.4 hPa 16.1 km NE 22.2 km/h / 6.2 m/s - N/A   Clear
10:56 PM 20.0 °C - 17.2 °C 84% 1018.8 hPa 16.1 km NE 9.3 km/h / 2.6 m/s - N/A   Partly Cloudy
11:56 PM 19.4 °C - 17.7 °C 90% 1018.5 hPa 16.1 km NNE 13.0 km/h / 3.6 m/s - N/A   Clear